FW8448 Weather Reports


Display with metric or nautical units.
time (UTC)temp
F
wind
direction
speed
MPH
gust
MPH
rain 1hr
in
rain 24hr
in
rain mn
in
humidity
%
barometer
mb
20260901111558 71 0 0.0 0.0 0.00 0.00 0.00 95 1018.3
20260901110105 71 0 0.0 0.0 0.00 0.00 0.00 95 1018.1
20260901104557 72 0 0.0 0.0 0.00 0.00 0.00 95 1017.9
20260901103101 72 0 0.0 0.0 0.00 0.00 0.00 95 1017.6
20260901101601 72 0 0.0 2.0 0.00 0.00 0.00 95 1017.7
20260901094559 72 0 0.0 0.0 0.00 0.00 0.00 95 1017.5
20260901093055 72 0 0.0 1.0 0.00 0.00 0.00 94 1017.5
20260901091558 72 0 0.0 1.0 0.00 0.00 0.00 94 1017.4
20260901090059 72 0 0.0 0.0 0.00 0.00 0.00 94 1017.4
20260901084603 72 0 0.0 2.0 0.00 0.00 0.00 94 1017.2
20260901083059 73 0 0.0 2.0 0.00 0.00 0.00 94 1017.2
20260901081559 73 225 0.0 0.0 0.00 0.00 0.00 94 1017.0
20260901080059 73 0 0.0 1.0 0.00 0.00 0.00 93 1016.9
20260901074601 74 0 0.0 3.0 0.00 0.00 0.00 93 1017.0
20260901073102 74 0 0.0 3.0 0.00 0.00 0.00 93 1017.0
20260901071600 74 0 0.0 1.0 0.00 0.00 0.00 93 1017.1
20260901064557 75 0 0.0 5.0 0.00 0.00 0.00 92 1017.1
20260901063114 75 179 1.0 4.0 0.00 0.00 0.00 92 1017.1
20260901061602 75 229 0.0 3.0 0.00 0.00 0.00 92 1017.0
20260901060059 75 0 0.0 3.0 0.00 0.00 0.00 92 1017.3
20260901054557 76 0 0.0 4.0 0.00 0.00 0.00 91 1017.4
20260901053101 76 226 0.0 3.0 0.00 0.00 0.00 91 1017.4
20260901051618 76 0 0.0 4.0 0.00 0.00 0.00 92 1017.2
20260901050104 75 0 0.0 3.0 0.00 0.00 0.00 92 1017.3
20260901044602 75 0 0.0 2.0 0.00 0.00 0.00 93 1017.2
20260901043100 75 0 0.0 0.0 0.00 0.00 0.00 93 1017.4
20260901041559 76 0 0.0 0.0 0.00 0.00 0.00 92 1017.6
20260901040057 76 0 0.0 2.0 0.00 0.00 0.00 91 1017.7
20260901034609 76 165 0.0 4.0 0.00 0.00 0.00 92 1017.5
20260901033111 76 0 0.0 1.0 0.00 0.00 0.00 92 1017.5
20260901031602 76 0 0.0 1.0 0.00 0.00 0.00 92 1017.8
20260901030058 77 0 0.0 0.0 0.00 0.00 0.00 91 1017.9
20260901024608 77 0 0.0 1.0 0.00 0.00 0.00 91 1018.0
20260901023059 77 176 0.0 3.0 0.00 0.00 0.00 92 1017.8
20260901021601 76 0 0.0 0.0 0.00 0.00 0.00 94 1017.8
20260901014609 76 0 0.0 0.0 0.00 0.00 0.00 93 1017.7
20260901013058 77 0 0.0 0.0 0.00 0.00 0.00 92 1017.6
20260901011605 77 0 0.0 0.0 0.00 0.00 0.00 90 1017.5
20260901010059 78 0 0.0 0.0 0.00 0.00 0.00 89 1017.4
20260901004617 79 0 0.0 0.0 0.00 0.00 0.00 88 1017.3
20260901003102 80 0 0.0 0.0 0.00 0.00 0.00 86 1017.3
20260901001605 82 0 0.0 0.0 0.00 0.00 0.00 84 1017.1
20260901000110 84 0 0.0 0.0 0.00 0.00 0.00 81 1017.1
20260831234559 86 0 0.0 1.0 0.00 0.00 0.00 76 1017.1
20260831233100 87 211 0.0 3.0 0.00 0.00 0.00 75 1017.2
20260831231611 87 267 1.0 7.0 0.00 0.00 0.00 74 1017.0
20260831230107 87 231 2.0 5.0 0.00 0.00 0.00 74 1017.0
20260831224605 87 215 2.0 6.0 0.00 0.00 0.00 73 1017.0
20260831223105 88 209 3.0 11.0 0.00 0.00 0.00 70 1016.7
20260831221609 90 225 2.0 9.0 0.00 0.00 0.00 68 1017.1
20260831220057 90 0 1.0 7.0 0.00 0.00 0.00 67 1017.1
20260831214559 90 190 2.0 7.0 0.00 0.00 0.00 66 1017.2
20260831213105 90 161 3.0 6.0 0.00 0.00 0.00 66 1017.1
20260831211606 90 202 2.0 11.0 0.00 0.00 0.00 64 1017.2
20260831210100 91 0 0.0 10.0 0.00 0.00 0.00 63 1017.3
20260831204559 91 0 0.0 1.0 0.00 0.00 0.00 68 1017.3
20260831203105 91 224 0.0 0.0 0.00 0.00 0.00 67 1017.5
20260831201604 90 0 0.0 0.0 0.00 0.00 0.00 66 1017.9
20260831200100 91 0 0.0 0.0 0.00 0.00 0.00 65 1018.1
20260831194640 91 0 0.0 0.0 0.00 0.00 0.00 66 1018.3
20260831193059 90 0 0.0 7.0 0.00 0.00 0.00 69 1018.5
20260831191608 90 0 0.0 0.0 0.00 0.00 0.00 71 1018.6
20260831190125 89 0 0.0 0.0 0.00 0.00 0.00 74 1018.9
20260831184611 88 0 0.0 9.0 0.00 0.00 0.00 71 1019.0
20260831183101 86 272 7.0 11.0 0.00 0.00 0.00 71 1019.0
20260831181604 88 275 5.0 11.0 0.00 0.00 0.00 72 1019.2
20260831180059 88 286 2.0 15.0 0.00 0.00 0.00 74 1019.3
20260831174631 88 260 4.0 12.0 0.00 0.00 0.00 74 1019.2
20260831173102 87 282 6.0 15.0 0.00 0.00 0.00 76 1019.4
20260831171558 86 192 5.0 12.0 0.00 0.00 0.00 79 1019.6
20260831164601 85 264 1.0 7.0 0.00 0.00 0.00 82 1019.8
20260831163107 85 217 3.0 10.0 0.00 0.00 0.00 81 1019.8
20260831161604 85 279 4.0 10.0 0.00 0.00 0.00 79 1019.8
20260831160104 84 254 5.0 12.0 0.00 0.00 0.00 82 1019.8
20260831154630 83 242 2.0 13.0 0.00 0.00 0.00 85 1019.8
20260831153112 82 257 4.0 10.0 0.00 0.00 0.00 84 1019.8
20260831151607 82 263 1.0 8.0 0.00 0.00 0.00 85 1019.8
20260831150104 81 0 4.0 10.0 0.00 0.00 0.00 84 1019.8
20260831144601 80 244 1.0 9.0 0.00 0.00 0.00 87 1019.6
20260831143058 79 287 0.0 2.0 0.00 0.00 0.00 89 1019.5
20260831141607 78 217 0.0 4.0 0.00 0.00 0.00 88 1019.4
20260831140056 78 0 0.0 3.0 0.00 0.00 0.00 88 1019.3
20260831134613 78 0 0.0 3.0 0.00 0.00 0.00 88 1019.2
20260831133112 77 0 0.0 0.0 0.00 0.00 0.00 88 1019.4
20260831131600 76 132 0.0 2.0 0.00 0.00 0.00 91 1019.4
20260831124611 74 0 0.0 0.0 0.00 0.00 0.00 92 1019.1
20260831123102 71 0 0.0 1.0 0.00 0.00 0.00 95 1019.0
20260831121632 70 0 0.0 1.0 0.00 0.00 0.00 96 1018.8
20260831114603 68 0 0.0 0.0 0.00 0.00 0.00 96 1018.8
20260831113108 68 0 0.0 1.0 0.00 0.00 0.00 96 1018.8